Probability
0 0 0 0 0 0 0 0 0 0 0 0 0 0 0 0 0 0 0 0 0 0 0 0 0 0 0 0 0 0 0 0 0 0 0 0 0 0 0 0 0 0 0 0
0 0 0 0 0 0 0 0 0 0 0 0 0 0 0 0 0 0 0 0 0 0 0 0 0 0 0 0 0 0 0 0 0 0 0 0 0 0 0 0 0 0 0 0
0 0 0 0 0 0 0 0 0 0 0 0 0 0 0 0 0 0 0 0 0 0 0 0 0 0 0 0 0 0 0 0 0 0 0 0 0 0 0 0 0 0 0 0
0 0 0 0 0 0 0 0 0 0 0 0 0 0 0 0 0 0 0 0 0 0 0 0 0 0 0 0 0 0 0 0 0 0 0 0 0 0 0 0 0 0 0 0
0 0 0 0 0 0 0 0 0 0 0 0 0 0 0 0 0 0 0 0 0 0 0 0 0 0 0 0 0 0 0 0 0 0 0 0 0 0 0 0 0 0 0 0
0 0 0 0 0 0 0 0 0 0 0 0 0 0 0 0 0 0 0 0 0 0 0 0 0 0 0 0 0 0 0 0 0 0 0 0 0 0 0 0 0 0 0 0
0 0 0 0 0 0 0 0 0 0 0 0 0 0 0 0 0 0 0 0 0 0 0 0 0 0 0 0 0 0 0 0 0 0 0 0 0 0 0 0 0 0 0 0
0 0 0 0 0 0 0 0 0 0 0 0 0 0 0 0 0 0 0 0 0 0 0 0 0 0 0 0 0 0 0 0 0 0 0 0 0 0 0 0 0 0 0 0
0 0 0 0 0 0 0 0 0 0 0 0 0 0 0 0 0 0 0 0 0 0 0 0 0 0 0 0 0 0 0 0 0 0 0 0 0 0 0 0 0 0 0 0
0 0 0 0 0 0 0 0 0 0 0 0 0 0 0 0 0 0 0 0 0 0 0 0 0 0 0 0 0 0 0 0 0 0 0 0 0 0 0 0 0 0 0 0
0 0 0 0 0 0 0 0 0 0 0 0 0 0 0 0 0 0 0 0 0 0 0 0 0 0 0 0 0 0 0 0 0 0 0 0 0 0 0 0 0 0 0 0
0 0 0 0 0 0 0 0 0 0 0 0 0 0 0 0 0 0 0 0 0 0 0 0 0 0 0 0 0 0 0 0 0 0 0 0 0 0 0 0 0 0 0 0
0 0 0 0 0 0 0 0 0 0 0 0 0 0 0 0 0 0 0 0 0 0 0 0 0 0 0 0 0 0 0 0 0 0 0 0 0 0 0 0 0 0 0 0
0 0 0 0 0 0 0 0 0 0 0 0 0 0 0 0 0 0 0 0 0 0 0 0 0 0 0 0 0 0 0 0 0 0 0 0 0 0 0 0 0 0 0 0
0 0 0 0 0 0 0 0 0 0 0 0 0 0 0 0 0 0 0 0 0 0 0 0 0 0 0 0 0 0 0 0 0 0 0 0 0 0 0 0 0 0 0 0
0 0 0 0 0 0 0 0 0 0 0 0 0 0 0 0 0 0 0 0 0 0 0 0 0 0 0 0 0 0 0 0 0 0 0 0 0 0 0 0 0 0 0 0
0 0 0 0 0 0 0 0 0 0 0 0 0 0 0 0 0 0 0 0 0 0 0 0 0 0 0 0 0 0 0 0 0 0 0 0 0 0 0 0 0 0 0 0
0 0 0 0 0 0 0 0 0 0 0 0 0 0 0 0 0 0 0 0 0 0 0 0 0 0 0 0 0 0 0 0 0 0 0 0 0 0 0 0 0 0 0 0
0 0 0 0 0 0 0 0 0 0 0 0 0 0 0 0 0 0 0 0 0 0 0 0 0 0 0 0 0 0 0 0 0 0 0 0 0 0 0 0 0 0 0 0
0 0 0 0 0 0 0 0 0 0 0 0 0 0 0 0 0 0 0 0 0 0 0 0 0 0 0 0 0 0 0 0 0 0 0 0 0 0 0 0 0 0 0 0
0 0 0 0 0 0 0 0 0 0 0 0 0 0 0 0 0 0 0 0 0 0 0 0 0 0 0 0 0 0 0 0 0 0 0 0 0 0 0 0 0 0 0 0
0 0 0 0 0 0 0 0 0 0 0 0 0 0 0 0 0 0 0 0 0 0 0 0 0 0 0 0 0 0 0 0 0 0 0 0 0 0 0 0 0 0 0 0
0 0 0 0 0 0 0 0 0 0 0 0 0 0 0 0 0 0 0 0 0 0 0 0 0 0 0 0 0 0 0 0 0 0 0 0 0 0 0 0 0 0 0 0
0 0 0 0 0 0 0 0 0 0 0 0 0 0 0 0 0 0 0 0 0 0 0 0 0 0 0 0 0 0 0 0 0 0 0 0 0 0 0 0 0 0 0 0
0 0 0 0 0 0 0 0 0 0 0 0 0 0 0 0 0 0 0 0 0 0 0 0 0 0 0 0 0 0 0 0 0 0 0 0 0 0 0 0 0 0 0 0
0 0 0 0 0 0 0 0 0 0 0 0 0 0 0 0 0 0 0 0 0 0 0 0 0 0 0 0 0 0 0 0 0 0 0 0 0 0 0 0 0 0 0 0
0 0 0 0 0 0 0 0 0 0 0 0 0 0 0 0 0 0 0 0 0 0 0 0 0 0 0 0 0 0 0 0 0 0 0 0 0 0 0 0 0 0 0 0
Height
5559 5560 5563 5565 5568 5571 5573 5576 5579 5584 5587 5592 5595 5598 5602 5606 5610 5614 5619 5623 5627 5631 5636 5640 5644 5647 5651 5654 5658 5661 5664 5667 5669 5672 5674 5676 5678 5680 5681 5683 5684 5685 5685 5686
5555 5556 5557 5559 5563 5565 5567 5570 5573 5576 5580 5583 5586 5590 5594 5598 5602 5606 5610 5614 5618 5622 5626 5630 5634 5638 5641 5645 5649 5651 5654 5657 5659 5662 5664 5666 5668 5670 5671 5672 5673 5674 5675 5675
5550 5551 5552 5554 5557 5558 5561 5563 5566 5569 5573 5575 5578 5582 5586 5590 5594 5597 5601 5605 5609 5613 5617 5621 5625 5628 5632 5635 5639 5642 5645 5647 5650 5652 5654 5656 5658 5660 5661 5662 5663 5664 5664 5664
5545 5547 5547 5552 5551 5552 5554 5557 5559 5561 5564 5567 5570 5574 5578 5581 5585 5589 5592 5596 5600 5604 5608 5612 5615 5619 5622 5626 5629 5632 5635 5637 5639 5642 5644 5646 5648 5649 5650 5652 5653 5653 5654 5654
5541 5541 5542 5545 5546 5546 5548 5551 5553 5555 5557 5560 5562 5566 5570 5573 5577 5580 5584 5587 5591 5595 5599 5602 5606 5609 5613 5616 5619 5622 5625 5627 5629 5632 5634 5636 5637 5639 5640 5641 5642 5643 5643 5643
5537 5536 5537 5540 5540 5540 5543 5544 5547 5548 5550 5552 5555 5559 5563 5565 5569 5572 5575 5578 5582 5585 5589 5593 5596 5600 5603 5606 5609 5612 5615 5617 5619 5621 5623 5625 5626 5628 5629 5630 5631 5631 5632 5632
5533 5532 5533 5534 5534 5535 5537 5539 5540 5541 5543 5545 5547 5551 5555 5557 5560 5563 5566 5569 5572 5576 5580 5583 5586 5589 5593 5596 5599 5602 5605 5607 5609 5610 5612 5614 5615 5617 5618 5619 5620 5620 5621 5621
5528 5527 5530 5527 5528 5529 5530 5531 5532 5534 5535 5537 5540 5543 5546 5549 5552 5555 5558 5560 5563 5567 5570 5573 5577 5580 5583 5586 5590 5592 5595 5596 5598 5600 5602 5603 5604 5606 5607 5608 5609 5610 5610 5610
5523 5525 5523 5522 5522 5522 5523 5524 5525 5526 5528 5530 5532 5535 5538 5541 5544 5546 5549 5552 5555 5558 5561 5564 5567 5570 5574 5577 5580 5582 5584 5586 5588 5590 5591 5593 5594 5596 5597 5598 5599 5599 5600 5600
5517 5518 5517 5516 5515 5515 5516 5517 5518 5519 5521 5523 5525 5528 5531 5533 5535 5538 5540 5543 5546 5549 5553 5555 5558 5561 5564 5567 5569 5572 5574 5576 5578 5579 5581 5583 5584 5586 5587 5588 5589 5589 5589 5589
5511 5511 5510 5510 5509 5509 5509 5510 5511 5512 5513 5515 5518 5520 5523 5525 5527 5530 5532 5535 5537 5541 5544 5547 5549 5552 5555 5557 5560 5562 5564 5566 5567 5569 5571 5573 5574 5576 5577 5578 5578 5579 5579 5579
5506 5505 5504 5504 5503 5502 5503 5503 5504 5505 5506 5508 5510 5512 5514 5517 5519 5521 5524 5526 5529 5533 5536 5538 5541 5543 5545 5548 5550 5552 5555 5556 5558 5560 5561 5563 5564 5565 5566 5567 5568 5568 5568 5568
5500 5499 5498 5497 5496 5496 5496 5496 5497 5498 5499 5501 5503 5504 5506 5508 5511 5513 5515 5518 5521 5524 5527 5530 5532 5534 5536 5539 5541 5543 5545 5547 5549 5550 5552 5553 5554 5555 5556 5557 5558 5558 5558 5558
5495 5493 5492 5491 5491 5490 5489 5489 5490 5491 5492 5493 5495 5497 5499 5500 5502 5505 5507 5510 5512 5515 5518 5521 5523 5525 5528 5530 5532 5534 5536 5538 5540 5541 5543 5544 5545 5546 5547 5547 5548 5548 5548 5547
5489 5487 5486 5485 5485 5484 5483 5483 5484 5484 5485 5487 5488 5489 5491 5493 5494 5496 5498 5501 5504 5506 5509 5512 5514 5517 5519 5521 5523 5525 5528 5530 5531 5533 5534 5535 5536 5537 5537 5537 5538 5538 5538 5538
5484 5482 5480 5480 5479 5478 5478 5478 5478 5478 5479 5480 5481 5482 5483 5485 5486 5488 5490 5492 5495 5498 5500 5503 5505 5508 5510 5512 5515 5517 5519 5521 5522 5524 5525 5526 5526 5527 5528 5528 5528 5528 5528 5528
5478 5476 5475 5474 5473 5473 5472 5472 5472 5472 5473 5473 5474 5475 5476 5477 5479 5480 5482 5484 5486 5489 5491 5494 5497 5499 5501 5503 5506 5508 5510 5511 5513 5514 5516 5516 5517 5518 5518 5518 5519 5519 5519 5519
5472 5470 5468 5467 5467 5466 5466 5466 5466 5466 5466 5467 5467 5468 5469 5470 5471 5472 5474 5476 5478 5480 5482 5485 5487 5490 5492 5495 5497 5499 5500 5502 5504 5505 5506 5507 5508 5509 5509 5510 5510 5510 5511 5511
5466 5464 5462 5461 5460 5460 5459 5459 5459 5459 5459 5460 5460 5461 5462 5462 5463 5465 5466 5468 5470 5472 5474 5476 5478 5481 5483 5486 5488 5490 5491 5493 5495 5496 5497 5498 5499 5500 5501 5501 5502 5502 5503 5503
5461 5459 5457 5456 5455 5454 5453 5453 5452 5452 5452 5453 5453 5454 5455 5455 5456 5458 5459 5461 5462 5464 5466 5468 5470 5473 5475 5477 5479 5481 5483 5484 5486 5487 5489 5490 5491 5492 5493 5494 5494 5495 5496 5496
5455 5453 5452 5450 5449 5448 5447 5447 5446 5446 5446 5446 5446 5447 5448 5449 5450 5451 5452 5454 5455 5457 5459 5460 5462 5464 5467 5469 5471 5472 5474 5476 5477 5479 5481 5482 5483 5484 5485 5486 5487 5488 5489 5489
5450 5448 5446 5445 5444 5443 5442 5441 5440 5440 5440 5440 5440 5441 5442 5442 5443 5444 5445 5447 5449 5450 5451 5453 5455 5457 5459 5461 5463 5465 5466 5468 5470 5471 5473 5475 5476 5477 5478 5479 5480 5481 5482 5483
5444 5442 5441 5439 5438 5437 5436 5435 5435 5434 5434 5434 5434 5435 5435 5436 5437 5438 5439 5441 5442 5443 5445 5446 5448 5450 5452 5454 5456 5457 5459 5461 5462 5464 5466 5467 5468 5469 5471 5472 5473 5474 5476 5477
5439 5437 5435 5434 5433 5431 5430 5429 5429 5429 5428 5428 5429 5429 5430 5430 5431 5432 5433 5434 5435 5436 5438 5439 5441 5443 5445 5447 5449 5450 5452 5454 5455 5457 5459 5460 5461 5462 5464 5465 5466 5468 5469 5470
5433 5431 5430 5428 5427 5426 5424 5424 5423 5423 5422 5422 5423 5423 5424 5424 5425 5426 5427 5428 5429 5430 5432 5433 5435 5437 5438 5440 5442 5444 5446 5447 5449 5451 5452 5453 5455 5456 5457 5459 5460 5462 5463 5465
5427 5425 5424 5422 5421 5420 5419 5418 5417 5417 5417 5417 5417 5417 5418 5418 5419 5420 5421 5422 5423 5425 5426 5428 5429 5431 5433 5435 5437 5438 5440 5442 5443 5445 5446 5448 5449 5450 5452 5453 5455 5456 5458 5459
5421 5419 5417 5416 5415 5413 5413 5412 5412 5411 5411 5412 5412 5412 5413 5413 5414 5415 5416 5417 5418 5420 5421 5423 5424 5426 5428 5430 5432 5433 5435 5436 5438 5439 5441 5442 5444 5445 5447 5448 5450 5451 5453 5455
Wind_Speed
20 23 28 30 30 30 31 33 33 32 33 34 36 37 37 38 38 38 39 40 41 41 42 42 42 44 44 44 44 44 43 43 43 43 42 42 41 42 42 43 43 43 43 44
19 20 25 28 29 29 30 31 32 33 33 34 35 36 37 37 37 38 39 39 40 41 41 41 42 43 44 45 44 44 43 43 43 43 42 42 42 42 42 42 43 43 43 44
18 19 22 24 26 27 27 29 32 33 32 34 35 36 36 36 37 37 38 39 40 40 41 42 42 42 43 43 43 43 43 42 42 42 42 42 42 42 43 43 43 44 44 44
17 18 21 22 23 26 28 29 30 30 31 32 33 35 36 36 36 37 38 38 39 40 41 41 42 42 43 42 41 41 41 41 42 42 42 42 42 43 43 44 44 44 43 44
17 19 20 21 22 23 26 29 31 31 30 31 32 33 34 35 35 36 36 37 38 39 40 41 42 42 42 42 42 41 42 41 42 42 42 42 43 44 44 44 44 44 44 43
17 19 20 21 23 23 24 26 28 31 32 31 31 32 32 33 34 35 35 36 37 38 39 40 42 42 42 41 41 41 42 42 42 42 42 43 43 43 43 43 44 44 44 44
18 19 20 21 22 23 24 24 25 28 31 32 32 33 33 33 33 34 34 35 36 37 38 39 40 41 42 42 41 41 41 41 41 41 42 42 42 42 41 42 42 42 42 42
21 20 20 21 22 23 24 24 25 27 28 30 31 32 33 33 33 33 34 36 37 37 37 38 39 40 41 41 42 41 41 41 41 41 41 41 40 40 40 40 40 40 41 41
22 21 21 22 22 23 24 24 25 26 27 29 30 31 31 32 32 33 33 35 36 37 37 37 38 39 40 40 41 42 42 41 40 40 40 39 38 38 39 39 39 39 39 40
22 21 22 22 22 23 24 25 25 26 27 28 29 30 31 31 31 31 32 34 35 36 35 35 36 37 37 38 38 38 40 40 40 40 40 39 39 38 38 38 38 38 39 39
20 20 21 22 22 23 24 25 26 26 26 27 29 30 31 31 31 31 31 32 33 35 35 35 35 36 37 36 37 38 38 38 39 39 39 39 38 38 38 39 38 38 39 38
20 21 22 21 21 21 22 24 26 27 27 27 28 29 30 30 31 32 32 32 33 34 33 34 34 35 36 36 36 36 36 36 37 36 36 37 37 38 37 38 37 37 37 37
21 21 20 20 21 21 22 23 24 26 27 27 27 27 29 30 30 31 32 33 33 33 33 33 33 33 34 34 35 35 35 35 35 35 35 35 35 35 35 36 36 36 36 35
22 21 20 19 20 20 21 22 23 24 25 27 27 27 28 29 30 31 31 32 33 34 34 34 33 33 33 33 33 33 33 33 33 33 33 33 33 34 34 35 35 35 35 34
21 20 19 18 18 18 19 20 21 22 23 25 26 26 27 28 29 31 31 31 33 33 34 34 34 33 33 32 32 32 32 32 32 32 33 33 34 34 34 34 34 34 34 34
20 20 20 19 19 18 19 20 20 20 21 23 24 25 26 27 28 29 30 30 31 31 32 32 33 33 33 32 32 32 33 32 32 33 33 33 33 33 33 32 32 32 32 32
20 20 20 20 20 19 19 20 21 21 21 22 23 24 25 25 26 27 28 28 29 30 31 32 32 32 32 32 32 32 32 33 33 33 33 32 32 32 31 31 31 30 30 29
20 20 20 19 19 19 20 20 21 21 21 21 21 22 24 24 25 26 27 27 28 29 30 31 31 31 31 30 30 30 30 31 31 31 31 31 30 30 29 29 29 28 28 28
20 20 19 19 19 19 19 19 19 20 21 21 22 22 22 23 24 25 26 26 27 27 28 28 29 29 29 30 30 29 29 30 30 29 28 28 28 28 27 26 26 26 25 25
19 19 18 18 18 18 18 18 18 19 19 20 20 21 21 21 22 22 23 24 25 25 26 27 27 27 28 28 28 28 28 28 28 28 27 26 26 26 25 25 24 24 23 23
19 18 18 18 18 18 17 17 17 18 18 18 19 19 19 19 20 20 21 21 22 23 24 24 25 26 26 26 26 27 27 27 27 26 26 26 25 24 24 24 24 23 22 22
19 18 17 17 18 18 18 17 17 17 17 17 17 18 18 18 19 19 20 20 21 21 21 22 23 24 24 24 24 24 25 25 25 25 25 25 24 24 23 23 23 22 22 21
19 18 18 18 18 18 18 18 18 17 17 17 17 17 17 18 18 19 20 20 20 21 21 21 21 22 23 23 23 23 23 23 23 23 23 23 23 23 23 22 21 21 21 20
20 19 19 18 18 18 18 18 18 17 17 17 18 18 17 17 17 18 19 19 19 19 20 20 21 21 21 21 21 21 21 21 21 21 22 22 22 21 21 21 20 20 20 19
20 20 19 19 19 18 18 17 17 17 17 17 17 17 17 17 17 17 17 17 17 17 17 18 18 18 19 19 20 20 20 20 20 20 20 20 20 20 19 19 19 19 18 17
20 19 19 18 18 18 18 17 17 17 17 16 16 16 16 16 16 16 16 16 17 16 16 17 17 17 17 17 18 18 18 18 18 18 19 19 18 18 18 17 17 17 17 16
19 19 19 18 18 18 17 17 17 16 16 15 15 15 15 14 14 14 15 15 16 16 16 16 16 16 16 17 17 17 17 17 17 17 17 17 16 16 16 15 15 14 14 14
Wind_Direction
248 243 240 238 235 237 240 240 241 240 238 236 236 235 235 235 234 233 234 234 234 235 236 237 239 240 241 242 244 245 247 249 249 250 252 254 256 257 259 260 262 264 266 268
251 248 245 241 238 240 242 241 242 241 240 239 238 236 234 235 235 235 235 235 235 235 236 237 239 240 240 243 244 246 248 249 250 251 253 254 256 258 260 262 263 265 267 269
259 255 253 248 243 244 244 243 243 242 241 240 239 238 237 236 237 237 237 238 237 237 237 237 238 239 240 242 244 247 249 250 251 252 253 254 256 258 260 262 263 266 268 270
267 264 261 253 247 246 245 243 242 242 240 240 239 238 238 238 238 238 238 239 239 238 238 238 239 239 240 242 244 246 248 250 252 253 253 254 257 260 261 262 263 266 269 271
270 268 266 259 252 250 247 244 243 243 242 241 240 239 237 238 239 238 238 239 239 238 239 239 239 240 241 243 245 246 248 250 253 253 254 257 259 260 261 263 265 266 269 270
273 273 269 263 259 257 252 249 246 245 243 242 240 239 238 238 239 239 240 240 240 239 240 240 240 241 242 244 246 247 249 251 253 254 256 258 260 261 263 265 266 267 269 270
279 277 272 266 263 260 256 252 249 246 244 243 242 241 240 240 241 242 242 241 240 239 239 240 241 243 243 244 246 248 249 251 253 255 256 258 259 260 263 265 266 267 269 271
281 277 274 268 266 262 258 254 251 248 245 243 242 242 242 243 243 244 244 242 240 240 240 242 243 244 244 246 247 248 250 252 253 254 256 258 259 261 262 264 265 267 269 272
280 277 274 271 269 265 260 256 253 250 246 244 242 242 243 245 245 246 246 243 241 240 241 242 243 244 245 247 248 250 251 253 253 255 257 258 259 260 262 264 266 268 270 273
281 276 274 272 270 267 262 257 254 252 248 244 243 243 245 247 248 248 247 244 243 241 240 242 244 245 246 248 249 251 252 254 255 256 257 258 259 260 262 264 267 269 272 274
284 280 277 274 272 269 263 259 255 253 251 247 246 246 246 247 247 247 247 245 244 242 242 244 245 246 247 248 250 252 253 254 256 256 257 258 259 261 263 266 267 270 272 273
290 283 280 277 272 269 266 262 258 255 253 250 249 249 249 248 247 245 245 245 243 243 244 245 247 247 248 249 250 250 252 253 255 257 258 259 261 262 263 265 267 269 270 272
294 288 283 278 274 271 268 264 261 258 255 252 252 251 251 250 248 247 246 244 243 243 244 246 247 248 249 249 248 250 252 253 255 257 259 261 261 261 263 265 267 269 271 272
296 290 284 280 276 274 270 265 261 257 255 255 255 254 253 251 249 247 245 245 245 244 245 247 248 248 248 249 249 250 252 253 255 257 258 261 262 263 264 266 268 270 271 272
296 291 284 280 278 276 272 268 262 257 254 254 256 255 254 252 250 248 247 248 246 245 246 247 248 248 248 249 249 250 252 254 257 259 261 263 264 265 267 269 270 270 272 272
297 292 285 280 278 275 271 268 264 260 256 254 255 254 254 253 253 251 250 249 247 245 246 247 248 248 249 250 250 250 253 256 259 260 261 263 265 266 268 270 270 271 271 272
299 295 289 282 277 274 272 268 264 262 260 258 256 255 255 255 254 253 251 250 248 246 247 247 247 248 250 250 251 251 253 256 258 260 261 263 265 266 268 270 270 270 270 271
299 296 291 286 280 276 273 270 267 263 261 260 259 257 257 256 255 254 251 250 249 248 248 248 248 248 250 251 252 253 254 256 258 260 261 264 265 267 268 269 269 269 269 270
300 296 292 287 283 279 274 271 268 266 264 262 261 260 259 257 256 254 251 250 249 248 247 247 248 248 249 251 253 255 254 255 258 259 261 262 264 266 266 268 269 269 269 269
302 298 294 290 287 282 276 272 271 269 267 265 264 262 259 258 256 254 253 250 250 249 248 249 249 249 250 251 253 254 254 255 256 257 258 260 263 264 265 266 267 267 267 267
304 300 296 292 289 286 281 275 271 271 270 267 265 263 260 257 256 254 252 250 250 251 250 250 250 250 251 252 253 254 254 254 254 255 257 259 261 263 264 264 263 263 264 265
302 300 297 294 291 288 284 279 273 271 270 268 266 263 260 257 255 255 251 248 249 251 249 249 250 250 251 251 252 252 252 251 252 254 256 258 260 261 261 261 260 260 261 261
300 298 296 294 292 289 286 281 276 272 270 268 267 264 262 259 256 254 251 250 252 251 249 248 249 250 250 250 249 249 249 250 250 252 254 256 259 259 258 258 258 258 257 258
297 295 294 294 291 289 287 283 278 274 271 268 267 265 263 259 256 254 252 251 252 252 250 248 249 250 249 247 246 246 246 248 249 250 251 254 257 256 255 255 255 255 255 256
298 296 294 292 290 288 287 284 279 275 272 270 267 266 264 261 257 254 252 250 249 249 248 247 247 247 247 245 244 243 244 246 249 250 252 254 255 254 252 252 251 251 252 253
298 296 294 291 289 287 286 284 280 275 272 269 267 264 262 260 256 254 251 248 247 247 248 247 245 244 243 242 241 242 243 246 250 251 251 251 252 249 248 248 247 247 247 246
298 296 293 291 289 286 283 282 279 273 269 267 265 263 260 257 255 254 252 249 248 246 246 246 244 241 239 240 241 243 244 245 247 247 246 246 246 244 243 243 242 241 242 241